Regional Weather Roundup
Issued by NWS

Home | Current Version | Previous Version | Text Only | Print | Product List | Glossary On
Versions: 1 2 3 4 5 6 7 8 9 10 11 12 13 14 15 16 17 18 19 20 21 22 23 24 25
000
ASUS45 KCYS 241710
RWRWY

WYOMING REGIONAL WEATHER ROUNDUP
NATIONAL WEATHER SERVICE CHEYENNE WY
1100 AM MDT FRI OCT 24 2014

NOTE:  "FAIR" INDICATES FEW OR NO CLOUDS BELOW 12,000 FEET
WITH NO SIGNIFICANT WEATHER AND/OR OBSTRUCTIONS TO VISIBILITY.

WYZ001-241800-
YELLOWSTONE NATIONAL PARK

CITY           SKY/WX    TMP DP  RH WIND       PRES   REMARKS
LK YELLOWSTONE   N/A     46  31  55 VRB3      30.25
W YELLOWSTONE  NOT AVBL

$$
WYZ002>013-054>058-071-098>099-241800-
NORTHERN WYOMING

CITY           SKY/WX    TMP DP  RH WIND       PRES   REMARKS
JACKSON        NOT AVBL
CODY           CLOUDY    66  30  26 W8        30.06F
GREYBULL       CLOUDY    50  29  44 CALM      30.06R
WORLAND        SUNNY     56  30  37 CALM      30.06S
SHERIDAN       PTSUNNY   60  31  33 NE3       30.07R
BUFFALO        CLOUDY    60  27  28 N9        30.11R
GILLETTE       PTSUNNY   62  29  28 N6        30.09R
HULETT         FAIR      63  32  31 N7        30.08
NEWCASTLE      FAIR      61  30  31 MISG      30.07S

$$
WYZ014>020-022>026-101>103-241800-
CENTRAL WYOMING

CITY           SKY/WX    TMP DP  RH WIND       PRES   REMARKS
BIG PINEY      SUNNY     49  28  44 VRB3      30.28S
PINEDALE       SUNNY     52  30  43 E3        30.29S
DUBOIS         FAIR      59  21  23 MISG      30.19R
LANDER         MOSUNNY   54  30  40 SE6       30.12S
RIVERTON       SUNNY     56  28  34 CALM      30.14S
CASPER         SUNNY     66  27  23 SW20G30   30.13R
DOUGLAS        SUNNY     70  30  22 W3        30.11S

$$
WYZ021-027>030-104>119-241800-
SOUTHERN WYOMING

CITY           SKY/WX    TMP DP  RH WIND       PRES   REMARKS
EVANSTON       SUNNY     60  26  27 SW12      30.29R
KEMMERER       SUNNY     55  27  33 SW6       30.30S
FORT BRIDGER   FAIR      63  24  23 SW10      30.31R
ROCK SPRINGS   SUNNY     56  32  40 E3        30.29R
DIXON          FAIR      64  30  28 SW17G30   30.33S
RAWLINS        SUNNY     63  27  25 SW16G25   30.28F
SARATOGA       FAIR      63  28  27 SW18G25   30.31S
LARAMIE        MOSUNNY   62  26  25 SW23G31   30.28R
CHEYENNE       CLOUDY    64  28  25 W13       30.22F
TORRINGTON     MOSUNNY   70  32  24 W14       30.09S
PINE BLUFFS    FAIR      72  28  20 W21G29    30.18R

$$



USA.gov is the U.S. government's official web portal to all federal, state and local government web resources and services.